Hourly Weather Otrubok

Today, 1 August, Sunday

Time Temperature Precipitation Wind Pressure Humidity
00:00 +18°C° 0.1 mm 2 mps 733 mmHg 85%
01:00 +18°C° 0.1 mm 3 mps 733 mmHg 88%
02:00 +17°C° 0.1 mm 3 mps 733 mmHg 92%
03:00 +17°C° 0.1 mm 3 mps 732 mmHg 94%
04:00 +17°C° 0.1 mm 3 mps 732 mmHg 95%
05:00 +17°C° 0.1 mm 3 mps 732 mmHg 97%
06:00 +18°C° 0 mm 3 mps 732 mmHg 91%
07:00 +19°C° 0 mm 3 mps 733 mmHg 84%
08:00 +21°C° 0 mm 4 mps 733 mmHg 78%
09:00 +22°C° 0 mm 4 mps 733 mmHg 67%
10:00 +25°C° 0 mm 4 mps 733 mmHg 57%
11:00 +26°C° 0 mm 4 mps 734 mmHg 46%
12:00 +26°C° 0 mm 4 mps 734 mmHg 44%
13:00 +27°C° 0 mm 4 mps 734 mmHg 42%
14:00 +27°C° 0 mm 5 mps 734 mmHg 40%
15:00 +27°C° 0 mm 4 mps 734 mmHg 43%
16:00 +27°C° 0 mm 4 mps 734 mmHg 45%
17:00 +27°C° 0 mm 3 mps 734 mmHg 48%
18:00 +25°C° 0 mm 3 mps 733 mmHg 54%
19:00 +23°C° 0 mm 2 mps 733 mmHg 61%
20:00 +21°C° 0 mm 1 mps 733 mmHg 67%
21:00 +21°C° 0 mm 1 mps 733 mmHg 67%
22:00 +21°C° 0 mm 1 mps 733 mmHg 67%
23:00 +20°C° 0 mm 1 mps 733 mmHg 67%

Tomorrow, 2 August, Monday

Time Temperature Precipitation Wind Pressure Humidity
00:00 +19°C° 0.3 mm 2 mps 732 mmHg 75%
01:00 +18°C° 0.3 mm 2 mps 732 mmHg 83%
02:00 +17°C° 0.3 mm 3 mps 732 mmHg 91%
03:00 +17°C° 1.3 mm 2 mps 732 mmHg 93%
04:00 +17°C° 1.3 mm 2 mps 731 mmHg 96%
05:00 +18°C° 1.3 mm 1 mps 730 mmHg 98%
06:00 +18°C° 1.7 mm 1 mps 730 mmHg 98%
07:00 +17°C° 1.7 mm 2 mps 730 mmHg 97%
08:00 +18°C° 1.7 mm 2 mps 730 mmHg 97%
09:00 +18°C° 0.8 mm 2 mps 730 mmHg 95%
10:00 +19°C° 0.8 mm 2 mps 730 mmHg 93%
11:00 +20°C° 0.8 mm 2 mps 730 mmHg 90%
12:00 +19°C° 1.2 mm 3 mps 730 mmHg 90%
13:00 +19°C° 1.2 mm 3 mps 729 mmHg 90%
14:00 +19°C° 1.2 mm 3 mps 729 mmHg 90%
15:00 +18°C° 1.8 mm 4 mps 729 mmHg 92%
16:00 +16°C° 1.8 mm 5 mps 730 mmHg 93%
17:00 +15°C° 1.8 mm 5 mps 730 mmHg 94%
18:00 +15°C° 0 mm 5 mps 731 mmHg 94%
19:00 +15°C° 0 mm 4 mps 731 mmHg 94%
20:00 +16°C° 0 mm 3 mps 732 mmHg 94%
21:00 +16°C° 0 mm 3 mps 732 mmHg 93%
22:00 +16°C° 0 mm 3 mps 732 mmHg 92%
23:00 +16°C° 0 mm 3 mps 732 mmHg 92%

Day after tomorrow, 3 August, Tuesday

Time Temperature Precipitation Wind Pressure Humidity
00:00 +14°C° 0 mm 3 mps 733 mmHg 93%
01:00 +14°C° 0 mm 3 mps 733 mmHg 94%
02:00 +14°C° 0 mm 3 mps 733 mmHg 95%
03:00 +13°C° 0 mm 3 mps 733 mmHg 94%
04:00 +13°C° 0 mm 3 mps 734 mmHg 93%
05:00 +12°C° 0 mm 3 mps 734 mmHg 92%
06:00 +14°C° 0 mm 4 mps 734 mmHg 86%
07:00 +15°C° 0 mm 4 mps 735 mmHg 81%
08:00 +17°C° 0 mm 4 mps 735 mmHg 75%
09:00 +17°C° 0 mm 5 mps 735 mmHg 67%
10:00 +19°C° 0 mm 5 mps 735 mmHg 60%
11:00 +21°C° 0 mm 5 mps 736 mmHg 52%
12:00 +21°C° 0 mm 5 mps 736 mmHg 52%
13:00 +21°C° 0 mm 5 mps 736 mmHg 51%
14:00 +22°C° 0 mm 5 mps 736 mmHg 50%
15:00 +21°C° 0.2 mm 5 mps 736 mmHg 55%
16:00 +21°C° 0.2 mm 5 mps 736 mmHg 60%
17:00 +20°C° 0.2 mm 4 mps 736 mmHg 65%
18:00 +19°C° 0.2 mm 4 mps 736 mmHg 72%
19:00 +17°C° 0.2 mm 3 mps 737 mmHg 79%
20:00 +16°C° 0.2 mm 3 mps 737 mmHg 86%
21:00 +15°C° 0 mm 2 mps 737 mmHg 88%
22:00 +14°C° 0 mm 2 mps 737 mmHg 90%
23:00 +14°C° 0 mm 2 mps 737 mmHg 92%

4 August, Wednesday

Time Temperature Precipitation Wind Pressure Humidity
00:00 +13°C° 0 mm 2 mps 738 mmHg 93%
01:00 +13°C° 0 mm 2 mps 738 mmHg 94%
02:00 +13°C° 0 mm 2 mps 738 mmHg 95%
03:00 +13°C° 0 mm 2 mps 738 mmHg 95%
04:00 +13°C° 0 mm 1 mps 738 mmHg 96%
05:00 +12°C° 0 mm 1 mps 739 mmHg 96%
06:00 +14°C° 0 mm 1 mps 739 mmHg 90%
07:00 +16°C° 0 mm 1 mps 739 mmHg 85%
08:00 +18°C° 0 mm 1 mps 740 mmHg 80%
09:00 +20°C° 0.1 mm 1 mps 740 mmHg 72%
10:00 +21°C° 0.1 mm 1 mps 740 mmHg 65%
11:00 +23°C° 0.1 mm 1 mps 740 mmHg 57%
12:00 +23°C° 0.1 mm 1 mps 740 mmHg 54%
13:00 +24°C° 0.1 mm 2 mps 740 mmHg 51%
14:00 +24°C° 0.1 mm 2 mps 740 mmHg 47%
15:00 +24°C° 0 mm 1 mps 740 mmHg 51%
16:00 +23°C° 0 mm 1 mps 740 mmHg 54%
17:00 +20°C° 0 mm 0 mps 739 mmHg 58%
18:00 +22°C° 0 mm 1 mps 739 mmHg 59%
19:00 +21°C° 0 mm 1 mps 739 mmHg 61%
20:00 +20°C° 0 mm 1 mps 739 mmHg 63%
21:00 +18°C° 0 mm 2 mps 739 mmHg 65%
22:00 +18°C° 0 mm 2 mps 739 mmHg 66%
23:00 +17°C° 0 mm 2 mps 739 mmHg 68%

5 August, Thursday

Time Temperature Precipitation Wind Pressure Humidity
00:00 +17°C° 0.1 mm 2 mps 739 mmHg 71%
01:00 +16°C° 0.1 mm 3 mps 738 mmHg 74%
02:00 +16°C° 0.1 mm 3 mps 738 mmHg 77%
03:00 +16°C° 0.5 mm 3 mps 738 mmHg 82%
04:00 +14°C° 0.5 mm 3 mps 738 mmHg 88%
05:00 +15°C° 0.5 mm 2 mps 737 mmHg 94%
06:00 +14°C° 0.1 mm 3 mps 737 mmHg 93%
07:00 +16°C° 0.1 mm 3 mps 737 mmHg 91%
08:00 +17°C° 0.1 mm 4 mps 737 mmHg 89%
09:00 +17°C° 0 mm 4 mps 736 mmHg 86%
10:00 +18°C° 0 mm 4 mps 736 mmHg 83%
11:00 +19°C° 0 mm 3 mps 736 mmHg 80%
12:00 +20°C° 0 mm 3 mps 736 mmHg 76%
13:00 +21°C° 0 mm 2 mps 735 mmHg 72%
14:00 +24°C° 0 mm 2 mps 735 mmHg 68%
15:00 +23°C° 0.5 mm 2 mps 735 mmHg 72%
16:00 +23°C° 0.5 mm 1 mps 734 mmHg 77%
17:00 +23°C° 0.5 mm 1 mps 734 mmHg 82%
18:00 +22°C° 0.1 mm 1 mps 733 mmHg 86%
19:00 +21°C° 0.1 mm 1 mps 733 mmHg 89%
20:00 +20°C° 0.1 mm 1 mps 732 mmHg 93%
21:00 +18°C° 0.7 mm 2 mps 732 mmHg 94%
22:00 +18°C° 0.7 mm 2 mps 732 mmHg 96%
23:00 +18°C° 0.7 mm 2 mps 731 mmHg 97%

6 August, Friday

Time Temperature Precipitation Wind Pressure Humidity
00:00 +19°C° 1 mm 1 mps 731 mmHg 97%
01:00 +19°C° 1 mm 1 mps 731 mmHg 98%
02:00 +19°C° 1 mm 1 mps 730 mmHg 98%
03:00 +19°C° 5.1 mm 1 mps 729 mmHg 98%
04:00 +18°C° 5.1 mm 2 mps 729 mmHg 98%
05:00 +18°C° 5.1 mm 3 mps 728 mmHg 98%
06:00 +18°C° 1.6 mm 3 mps 728 mmHg 98%
07:00 +18°C° 1.6 mm 3 mps 728 mmHg 98%
08:00 +18°C° 1.6 mm 3 mps 728 mmHg 97%
09:00 +17°C° 0.8 mm 4 mps 728 mmHg 97%
10:00 +15°C° 0.8 mm 4 mps 729 mmHg 96%
11:00 +15°C° 0.8 mm 4 mps 730 mmHg 95%
12:00 +16°C° 0.1 mm 5 mps 730 mmHg 88%
13:00 +19°C° 0.1 mm 5 mps 730 mmHg 80%
14:00 +20°C° 0.1 mm 5 mps 731 mmHg 72%
15:00 +21°C° 0.1 mm 5 mps 731 mmHg 70%
16:00 +21°C° 0.1 mm 5 mps 731 mmHg 68%
17:00 +21°C° 0.1 mm 5 mps 731 mmHg 66%
18:00 +20°C° 0 mm 4 mps 731 mmHg 72%
19:00 +18°C° 0 mm 3 mps 731 mmHg 77%
20:00 +16°C° 0 mm 3 mps 732 mmHg 82%
21:00 +16°C° 0 mm 3 mps 732 mmHg 83%
22:00 +14°C° 0 mm 3 mps 732 mmHg 84%
23:00 +13°C° 0 mm 3 mps 732 mmHg 85%
Show more